Regional Weather Roundup
Issued by NWS Albany, NY

Home | Current Version | Previous Version | Text Only | Print | Product List | Glossary On
Versions: 1 2 3 4 5 6 7 8 9 10 11 12 13 14 15 16 17 18 19 20 21 22 23 24 25 26 27
000
ASUS41 KALY 291910
RWRALY

NEW YORK STATE HOURLY WEATHER ROUNDUP
NATIONAL WEATHER SERVICE ALBANY NY
300 PM EDT SAT APR 29 2017

NOTE: "FAIR" INDICATES FEW OR NO CLOUDS BELOW 12,000 FEET WITH NO
SIGNIFICANT WEATHER AND/OR NO OBSTRUCTIONS TO VISIBILITY.

NYZ032-033-038>043-046>054-057>066-NYZ062>081-082-084-292000-
EAST


CITY           SKY/WX    TMP DP  RH WIND       PRES   REMARKS
ALBANY         CLOUDY    68  48  48 W20G26    29.97S
GLENS FALLS    PTSUNNY   72  48  42 W12G21    29.91F
POUGHKEEPSIE   CLOUDY    81  59  47 W15G23    29.91S
NEWBURGH       PTSUNNY   79  63  57 W17       29.96R
MONTGOMERY     PTSUNNY   81  59  47 W16G25    29.95R
WHITE PLAINS   CLOUDY    81  62  52 NW10      29.95R
ISLIP          PTSUNNY   80  63  55 SW20      29.94R
NEW YORK CITY  CLOUDY    87  59  38 W15G25    29.95R
CENTRAL PARK   PTSUNNY   84  60  44 VRB7G17   29.98R
$$

NYZ005>009-017-018-044>046-055-056-292000-
CENTRAL


CITY           SKY/WX    TMP DP  RH WIND       PRES   REMARKS
FULTON         CLOUDY    52  38  58 W15       30.12R
SYRACUSE       CLOUDY    56  44  64 W14       30.11R
ROME           CLOUDY    61  47  59 W21G28    30.07R
ELMIRA         LGT RAIN  58  54  86 E5        30.13R FOG
BINGHAMTON     CLOUDY    58  50  75 NW13      30.10R
MONTICELLO     CLOUDY    73  57  56 W14G20    30.02R
$$

NYZ026>034-041>043-087-292000-
NORTH


CITY           SKY/WX    TMP DP  RH WIND       PRES   REMARKS
WATERTOWN      CLOUDY    51  40  65 SW21G29   30.07R
FORT DRUM      NOT AVBL
OGDENSBURG     FAIR      68  46  45 SW13G20   29.97R
MASSENA        MOSUNNY   68  42  38 W18G29    29.94R
SARANAC LAKE   MOSUNNY   64  42  44 W16G28    29.93R
PLATTSBURGH    CLOUDY    73  40  30 NW10G21   29.87R
$$

NYZ001>004-010>016-019>021-085-292000-
WEST


CITY           SKY/WX    TMP DP  RH WIND       PRES   REMARKS
NIAGARA FALLS  CLOUDY    54  37  52 W5        30.16R
BUFFALO        CLOUDY    52  37  56 W6        30.17R
DUNKIRK        CLOUDY    49  42  77 N5        30.18S
JAMESTOWN      CLOUDY    54  46  76 CALM      30.15F
WELLSVILLE     LGT RAIN  54  51  90 W8        30.17R FOG
ROCHESTER      CLOUDY    57  41  55 W10       30.15R
PENN YAN       CLOUDY    60  47  61 W8        30.13R
$$

             KEY
       WCI = WIND CHILL INDEX
       VSB = VISIBILITY
       HX  = HEAT INDEX
$$




USA.gov is the U.S. government's official web portal to all federal, state and local government web resources and services.